Time,TemperatureF,DewpointF,PressureIn,WindDirection,WindDirectionDegrees,WindSpeedMPH,WindSpeedGustMPH,Humidity,HourlyPrecipIn,Conditions,Clouds,dailyrainin,SoftwareType,DateUTC
2013-05-28 00:00:00,69.5,60.5,30.11,SW,218,0.0,0.0,73,0.00,,,0.00,WeatherTracker,2013-05-28 05:00:00,
2013-05-28 00:05:00,69.3,60.6,30.11,SW,218,0.0,0.0,74,0.00,,,0.00,WeatherTracker,2013-05-28 05:05:00,
2013-05-28 00:10:00,69.0,60.7,30.10,SW,218,0.0,0.0,75,0.00,,,0.00,WeatherTracker,2013-05-28 05:10:00,
2013-05-28 00:15:00,68.7,60.8,30.10,SW,218,0.0,0.0,76,0.00,,,0.00,WeatherTracker,2013-05-28 05:15:00,
2013-05-28 00:25:00,68.2,61.1,30.10,SW,218,0.0,0.0,78,0.00,,,0.00,WeatherTracker,2013-05-28 05:25:00,
2013-05-28 00:35:00,67.6,61.2,30.10,SW,218,0.0,0.0,80,0.00,,,0.00,WeatherTracker,2013-05-28 05:35:00,
2013-05-28 00:45:00,67.1,61.8,30.09,SW,218,0.0,0.0,83,0.00,,,0.00,WeatherTracker,2013-05-28 05:45:00,
2013-05-28 00:50:00,66.9,61.9,30.09,SW,218,0.0,0.0,84,0.00,,,0.00,WeatherTracker,2013-05-28 05:50:00,
2013-05-28 00:55:00,66.6,61.6,30.09,SW,218,0.0,0.0,84,0.00,,,0.00,WeatherTracker,2013-05-28 05:55:00,
2013-05-28 01:00:00,66.3,61.3,30.09,SW,218,0.0,0.0,84,0.00,,,0.00,WeatherTracker,2013-05-28 06:00:00,
2013-05-28 01:05:00,66.1,61.1,30.09,SW,218,0.0,0.0,84,0.00,,,0.00,WeatherTracker,2013-05-28 06:05:00,
2013-05-28 01:15:00,65.7,60.7,30.09,SW,218,0.0,0.0,84,0.00,,,0.00,WeatherTracker,2013-05-28 06:15:00,
2013-05-28 01:25:00,65.2,60.2,30.09,SW,218,0.0,0.0,84,0.00,,,0.00,WeatherTracker,2013-05-28 06:25:00,
2013-05-28 01:30:00,65.0,60.0,30.09,SW,218,0.0,0.0,84,0.00,,,0.00,WeatherTracker,2013-05-28 06:30:00,
2013-05-28 01:40:00,64.7,60.4,30.09,SW,218,0.0,0.0,86,0.00,,,0.00,WeatherTracker,2013-05-28 06:40:00,
2013-05-28 01:45:00,64.5,60.2,30.09,SW,218,0.0,0.0,86,0.00,,,0.00,WeatherTracker,2013-05-28 06:45:00,
2013-05-28 01:50:00,64.4,60.1,30.09,SW,218,0.0,0.0,86,0.00,,,0.00,WeatherTracker,2013-05-28 06:50:00,
2013-05-28 02:00:00,64.1,60.1,30.09,SW,218,0.0,0.0,87,0.00,,,0.00,WeatherTracker,2013-05-28 07:00:00,
2013-05-28 02:05:00,64.0,60.0,30.09,SW,218,0.0,0.0,87,0.00,,,0.00,WeatherTracker,2013-05-28 07:05:00,
2013-05-28 02:15:00,63.7,59.8,30.09,SW,218,0.0,0.0,87,0.00,,,0.00,WeatherTracker,2013-05-28 07:15:00,
2013-05-28 02:20:00,63.6,60.0,30.09,SW,218,0.0,0.0,88,0.00,,,0.00,WeatherTracker,2013-05-28 07:20:00,
2013-05-28 02:30:00,63.5,60.2,30.09,SW,218,0.0,0.0,89,0.00,,,0.00,WeatherTracker,2013-05-28 07:30:00,
2013-05-28 02:40:00,63.4,60.4,30.10,SW,218,0.0,0.0,90,0.00,,,0.00,WeatherTracker,2013-05-28 07:40:00,
2013-05-28 02:45:00,63.2,60.2,30.10,SW,218,0.0,0.0,90,0.00,,,0.00,WeatherTracker,2013-05-28 07:45:00,
2013-05-28 02:50:00,63.1,60.1,30.09,SW,218,0.0,0.0,90,0.00,,,0.00,WeatherTracker,2013-05-28 07:50:00,
2013-05-28 02:55:00,63.0,60.0,30.09,SW,218,0.0,0.0,90,0.00,,,0.00,WeatherTracker,2013-05-28 07:55:00,
2013-05-28 03:00:00,63.1,60.1,30.09,SW,218,0.0,0.0,90,0.00,,,0.00,WeatherTracker,2013-05-28 08:00:00,
2013-05-28 03:05:00,63.0,60.0,30.09,SW,218,0.0,0.0,90,0.00,,,0.00,WeatherTracker,2013-05-28 08:05:00,
2013-05-28 03:15:00,62.9,59.9,30.09,SW,218,0.0,0.0,90,0.00,,,0.00,WeatherTracker,2013-05-28 08:15:00,
2013-05-28 03:20:00,63.0,60.3,30.09,SW,218,0.0,0.0,91,0.00,,,0.00,WeatherTracker,2013-05-28 08:20:00,
2013-05-28 03:25:00,63.0,60.3,30.10,SW,218,0.0,0.0,91,0.00,,,0.00,WeatherTracker,2013-05-28 08:25:00,
2013-05-28 03:30:00,63.0,60.3,30.10,SW,218,0.0,0.0,91,0.00,,,0.00,WeatherTracker,2013-05-28 08:30:00,
2013-05-28 03:40:00,63.1,60.4,30.10,SW,218,0.0,0.0,91,0.00,,,0.00,WeatherTracker,2013-05-28 08:40:00,
2013-05-28 03:45:00,63.1,60.4,30.09,SW,218,0.0,0.0,91,0.00,,,0.00,WeatherTracker,2013-05-28 08:45:00,
2013-05-28 03:55:00,63.2,60.5,30.09,SW,218,0.0,0.0,91,0.00,,,0.00,WeatherTracker,2013-05-28 08:55:00,
2013-05-28 04:00:00,63.2,60.5,30.09,SW,218,0.0,0.0,91,0.00,,,0.00,WeatherTracker,2013-05-28 09:00:00,
2013-05-28 04:10:00,63.4,60.7,30.09,SW,218,0.0,0.0,91,0.00,,,0.00,WeatherTracker,2013-05-28 09:10:00,
2013-05-28 04:15:00,63.4,60.7,30.09,SW,218,0.0,0.0,91,0.00,,,0.00,WeatherTracker,2013-05-28 09:15:00,
2013-05-28 04:25:00,63.6,61.2,30.09,SW,218,0.0,0.0,92,0.00,,,0.00,WeatherTracker,2013-05-28 09:25:00,
2013-05-28 04:30:00,63.6,61.2,30.09,SW,218,0.0,0.0,92,0.00,,,0.00,WeatherTracker,2013-05-28 09:30:00,
2013-05-28 04:40:00,63.6,60.9,30.09,SW,218,0.0,0.0,91,0.00,,,0.00,WeatherTracker,2013-05-28 09:40:00,
2013-05-28 04:45:00,63.7,61.0,30.09,SW,218,0.0,0.0,91,0.00,,,0.00,WeatherTracker,2013-05-28 09:45:00,
2013-05-28 04:50:00,63.8,61.1,30.09,SW,218,0.0,0.0,91,0.00,,,0.00,WeatherTracker,2013-05-28 09:50:00,
2013-05-28 04:55:00,63.9,61.2,30.10,SW,218,0.0,0.0,91,0.00,,,0.00,WeatherTracker,2013-05-28 09:55:00,
2013-05-28 05:00:00,63.9,61.2,30.10,SW,218,0.0,0.0,91,0.00,,,0.00,WeatherTracker,2013-05-28 10:00:00,
2013-05-28 05:05:00,64.0,61.3,30.10,SW,218,0.0,0.0,91,0.00,,,0.00,WeatherTracker,2013-05-28 10:05:00,
2013-05-28 05:15:00,64.0,61.3,30.10,SW,218,0.0,0.0,91,0.00,,,0.00,WeatherTracker,2013-05-28 10:15:00,
2013-05-28 05:25:00,64.0,61.3,30.10,SW,218,0.0,0.0,91,0.00,,,0.00,WeatherTracker,2013-05-28 10:25:00,
2013-05-28 05:30:00,64.0,61.3,30.10,South,188,0.0,0.0,91,0.00,,,0.00,WeatherTracker,2013-05-28 10:30:00,
2013-05-28 05:35:00,64.1,61.7,30.10,ESE,107,0.0,0.0,92,0.00,,,0.00,WeatherTracker,2013-05-28 10:35:00,
2013-05-28 05:45:00,64.2,61.8,30.10,ESE,107,1.0,1.0,92,0.00,,,0.00,WeatherTracker,2013-05-28 10:45:00,
2013-05-28 05:50:00,64.2,61.8,30.11,ESE,107,0.0,1.0,92,0.00,,,0.00,WeatherTracker,2013-05-28 10:50:00,
2013-05-28 05:55:00,64.2,61.8,30.11,SE,125,0.0,2.0,92,0.00,,,0.00,WeatherTracker,2013-05-28 10:55:00,
2013-05-28 06:00:00,64.3,61.9,30.11,South,176,2.0,2.0,92,0.00,,,0.00,WeatherTracker,2013-05-28 11:00:00,
2013-05-28 06:10:00,64.4,62.0,30.11,SSW,197,0.0,4.0,92,0.00,,,0.00,WeatherTracker,2013-05-28 11:10:00,
2013-05-28 06:20:00,64.5,62.1,30.11,SE,143,0.0,2.0,92,0.00,,,0.00,WeatherTracker,2013-05-28 11:20:00,
2013-05-28 06:25:00,64.6,62.2,30.11,SE,146,0.0,2.0,92,0.00,,,0.00,WeatherTracker,2013-05-28 11:25:00,
2013-05-28 06:35:00,65.1,62.7,30.11,ENE,76,1.0,6.0,92,0.00,,,0.00,WeatherTracker,2013-05-28 11:35:00,
2013-05-28 06:45:00,65.8,63.4,30.11,ESE,109,1.0,5.0,92,0.00,,,0.00,WeatherTracker,2013-05-28 11:45:00,
2013-05-28 06:50:00,66.4,64.0,30.11,SE,134,2.0,5.0,92,0.00,,,0.00,WeatherTracker,2013-05-28 11:50:00,
2013-05-28 07:00:00,67.6,64.6,30.11,SE,126,1.0,5.0,90,0.00,,,0.00,WeatherTracker,2013-05-28 12:00:00,
2013-05-28 07:05:00,68.1,64.4,30.11,South,175,0.0,5.0,88,0.00,,,0.00,WeatherTracker,2013-05-28 12:05:00,
2013-05-28 07:10:00,68.7,64.7,30.11,South,182,3.0,6.0,87,0.00,,,0.00,WeatherTracker,2013-05-28 12:10:00,
2013-05-28 07:20:00,69.8,65.4,30.11,SSE,158,4.0,6.0,86,0.00,,,0.00,WeatherTracker,2013-05-28 12:20:00,
2013-05-28 07:25:00,70.3,65.6,30.11,SE,131,4.0,8.0,85,0.00,,,0.00,WeatherTracker,2013-05-28 12:25:00,
2013-05-28 07:30:00,70.9,65.8,30.11,SSE,167,2.0,8.0,84,0.00,,,0.00,WeatherTracker,2013-05-28 12:30:00,
2013-05-28 07:40:00,72.0,66.2,30.11,SSE,167,2.0,7.0,82,0.00,,,0.00,WeatherTracker,2013-05-28 12:40:00,
2013-05-28 07:45:00,72.4,66.6,30.11,ESE,115,1.0,7.0,82,0.00,,,0.00,WeatherTracker,2013-05-28 12:45:00,
2013-05-28 07:50:00,73.0,66.8,30.11,South,174,6.0,7.0,81,0.00,,,0.00,WeatherTracker,2013-05-28 12:50:00,
2013-05-28 07:55:00,73.6,67.0,30.11,South,190,6.0,7.0,80,0.00,,,0.00,WeatherTracker,2013-05-28 12:55:00,
2013-05-28 08:00:00,73.9,67.3,30.11,SE,140,1.0,9.0,80,0.00,,,0.00,WeatherTracker,2013-05-28 13:00:00,
2013-05-28 08:10:00,74.7,67.7,30.11,South,175,6.0,9.0,79,0.00,,,0.00,WeatherTracker,2013-05-28 13:10:00,
2013-05-28 08:15:00,74.9,67.6,30.11,SSE,159,5.0,10.0,78,0.00,,,0.00,WeatherTracker,2013-05-28 13:15:00,
2013-05-28 08:20:00,75.0,67.7,30.11,South,172,5.0,10.0,78,0.00,,,0.00,WeatherTracker,2013-05-28 13:20:00,
2013-05-28 08:25:00,75.2,67.5,30.11,South,180,8.0,11.0,77,0.00,,,0.00,WeatherTracker,2013-05-28 13:25:00,
2013-05-28 08:30:00,75.2,67.5,30.11,WSW,245,4.0,11.0,77,0.00,,,0.00,WeatherTracker,2013-05-28 13:30:00,
2013-05-28 08:35:00,75.4,67.7,30.11,SSW,206,6.0,9.0,77,0.00,,,0.00,WeatherTracker,2013-05-28 13:35:00,
2013-05-28 08:45:00,76.7,68.5,30.11,SSW,192,3.0,7.0,76,0.00,,,0.00,WeatherTracker,2013-05-28 13:45:00,
2013-05-28 08:55:00,77.2,68.3,30.12,South,169,2.0,6.0,74,0.00,,,0.00,WeatherTracker,2013-05-28 13:55:00,
2013-05-28 09:00:00,78.0,68.6,30.12,SSW,210,3.0,6.0,73,0.00,,,0.00,WeatherTracker,2013-05-28 14:00:00,
2013-05-28 09:05:00,78.6,69.2,30.12,SSW,207,5.0,6.0,73,0.00,,,0.00,WeatherTracker,2013-05-28 14:05:00,
2013-05-28 09:15:00,79.1,69.3,30.12,SSE,167,4.0,7.0,72,0.00,,,0.00,WeatherTracker,2013-05-28 14:15:00,
2013-05-28 09:20:00,79.6,69.3,30.12,ESE,111,0.0,8.0,71,0.00,,,0.00,WeatherTracker,2013-05-28 14:20:00,
2013-05-28 09:25:00,80.0,68.9,30.12,SSW,202,5.0,9.0,69,0.00,,,0.00,WeatherTracker,2013-05-28 14:25:00,
2013-05-28 09:30:00,80.0,68.9,30.11,SSW,209,4.0,10.0,69,0.00,,,0.00,WeatherTracker,2013-05-28 14:30:00,
2013-05-28 09:40:00,80.2,68.7,30.11,WSW,239,5.0,9.0,68,0.00,,,0.00,WeatherTracker,2013-05-28 14:40:00,
2013-05-28 09:45:00,80.5,68.9,30.11,SSE,151,0.0,9.0,68,0.00,,,0.00,WeatherTracker,2013-05-28 14:45:00,
2013-05-28 09:50:00,81.1,69.1,30.11,South,190,7.0,9.0,67,0.00,,,0.00,WeatherTracker,2013-05-28 14:50:00,
2013-05-28 09:55:00,81.1,68.6,30.11,South,170,4.0,9.0,66,0.00,,,0.00,WeatherTracker,2013-05-28 14:55:00,
2013-05-28 10:05:00,81.4,68.5,30.11,South,174,7.0,9.0,65,0.00,,,0.00,WeatherTracker,2013-05-28 15:05:00,
2013-05-28 10:10:00,81.9,69.0,30.11,SSW,193,3.0,9.0,65,0.00,,,0.00,WeatherTracker,2013-05-28 15:10:00,
2013-05-28 10:15:00,82.8,68.9,30.11,SSW,206,7.0,8.0,63,0.00,,,0.00,WeatherTracker,2013-05-28 15:15:00,
2013-05-28 10:25:00,83.0,68.1,30.11,South,191,7.0,11.0,61,0.00,,,0.00,WeatherTracker,2013-05-28 15:25:00,
2013-05-28 10:35:00,83.8,69.4,30.11,South,191,2.0,10.0,62,0.00,,,0.00,WeatherTracker,2013-05-28 15:35:00,
2013-05-28 10:40:00,84.5,67.6,30.11,SE,141,6.0,10.0,57,0.00,,,0.00,WeatherTracker,2013-05-28 15:40:00,
2013-05-28 10:45:00,84.9,68.4,30.11,ESE,102,1.0,10.0,58,0.00,,,0.00,WeatherTracker,2013-05-28 15:45:00,
2013-05-28 10:50:00,85.1,68.6,30.11,SW,231,7.0,9.0,58,0.00,,,0.00,WeatherTracker,2013-05-28 15:50:00,
2013-05-28 10:55:00,85.0,68.0,30.11,SSE,164,1.0,9.0,57,0.00,,,0.00,WeatherTracker,2013-05-28 15:55:00,
2013-05-28 11:05:00,85.0,67.5,30.11,South,181,9.0,12.0,56,0.00,,,0.00,WeatherTracker,2013-05-28 16:05:00,
2013-05-28 11:15:00,85.3,67.3,30.11,SSE,161,6.0,11.0,55,0.00,,,0.00,WeatherTracker,2013-05-28 16:15:00,
2013-05-28 11:20:00,86.2,67.6,30.11,SW,216,8.0,11.0,54,0.00,,,0.00,WeatherTracker,2013-05-28 16:20:00,
2013-05-28 11:30:00,85.8,66.7,30.11,SSE,153,8.0,11.0,53,0.00,,,0.00,WeatherTracker,2013-05-28 16:30:00,
2013-05-28 11:35:00,85.8,67.2,30.11,SSE,161,2.0,10.0,54,0.00,,,0.00,WeatherTracker,2013-05-28 16:35:00,
2013-05-28 11:40:00,86.3,67.1,30.11,East,94,1.0,8.0,53,0.00,,,0.00,WeatherTracker,2013-05-28 16:40:00,
2013-05-28 11:45:00,86.7,68.0,30.11,SW,227,0.0,8.0,54,0.00,,,0.00,WeatherTracker,2013-05-28 16:45:00,
2013-05-28 11:50:00,87.3,67.5,30.10,East,100,2.0,8.0,52,0.00,,,0.00,WeatherTracker,2013-05-28 16:50:00,
2013-05-28 12:00:00,87.2,66.3,30.11,ESE,117,4.0,8.0,50,0.00,,,0.00,WeatherTracker,2013-05-28 17:00:00,
2013-05-28 12:10:00,87.9,66.9,30.10,SW,221,5.0,10.0,50,0.00,,,0.00,WeatherTracker,2013-05-28 17:10:00,
2013-05-28 12:15:00,87.8,67.4,30.10,South,178,2.0,10.0,51,0.00,,,0.00,WeatherTracker,2013-05-28 17:15:00,
2013-05-28 12:20:00,88.0,66.4,30.10,East,79,3.0,9.0,49,0.00,,,0.00,WeatherTracker,2013-05-28 17:20:00,
2013-05-28 12:25:00,88.1,65.9,30.10,SSW,197,5.0,9.0,48,0.00,,,0.00,WeatherTracker,2013-05-28 17:25:00,
2013-05-28 12:35:00,87.2,66.8,30.10,South,175,8.0,10.0,51,0.00,,,0.00,WeatherTracker,2013-05-28 17:35:00,
2013-05-28 12:45:00,88.3,65.5,30.09,South,177,1.0,11.0,47,0.00,,,0.00,WeatherTracker,2013-05-28 17:45:00,
2013-05-28 12:50:00,89.2,65.7,30.09,SSW,213,3.0,11.0,46,0.00,,,0.00,WeatherTracker,2013-05-28 17:50:00,
2013-05-28 13:00:00,90.2,67.2,30.09,ESE,113,4.0,9.0,47,0.00,,,0.00,WeatherTracker,2013-05-28 18:00:00,
2013-05-28 13:05:00,90.0,65.8,30.09,East,94,1.0,9.0,45,0.00,,,0.00,WeatherTracker,2013-05-28 18:05:00,
2013-05-28 13:15:00,89.9,65.7,30.08,South,184,2.0,10.0,45,0.00,,,0.00,WeatherTracker,2013-05-28 18:15:00,
2013-05-28 13:25:00,90.3,65.4,30.08,SSE,156,4.0,10.0,44,0.00,,,0.00,WeatherTracker,2013-05-28 18:25:00,
2013-05-28 13:30:00,90.1,65.9,30.08,East,88,0.0,9.0,45,0.00,,,0.00,WeatherTracker,2013-05-28 18:30:00,
2013-05-28 13:40:00,91.2,66.8,30.08,NE,38,3.0,7.0,45,0.00,,,0.00,WeatherTracker,2013-05-28 18:40:00,
2013-05-28 13:45:00,90.4,65.5,30.07,SE,135,6.0,8.0,44,0.00,,,0.00,WeatherTracker,2013-05-28 18:45:00,
2013-05-28 13:50:00,89.4,65.9,30.07,SE,126,1.0,8.0,46,0.00,,,0.00,WeatherTracker,2013-05-28 18:50:00,
2013-05-28 13:55:00,89.2,65.7,30.07,East,80,0.0,8.0,46,0.00,,,0.00,WeatherTracker,2013-05-28 18:55:00,
2013-05-28 14:00:00,88.9,66.0,30.07,ESE,111,1.0,6.0,47,0.00,,,0.00,WeatherTracker,2013-05-28 19:00:00,
2013-05-28 14:05:00,88.6,65.7,30.07,East,92,4.0,9.0,47,0.00,,,0.00,WeatherTracker,2013-05-28 19:05:00,
2013-05-28 14:10:00,88.7,66.4,30.06,South,174,0.0,9.0,48,0.00,,,0.00,WeatherTracker,2013-05-28 19:10:00,
2013-05-28 14:15:00,89.3,65.8,30.06,ESE,109,2.0,6.0,46,0.00,,,0.00,WeatherTracker,2013-05-28 19:15:00,
2013-05-28 14:20:00,89.2,66.3,30.06,SSE,167,2.0,8.0,47,0.00,,,0.00,WeatherTracker,2013-05-28 19:20:00,
2013-05-28 14:30:00,89.2,66.9,30.06,SE,132,6.0,11.0,48,0.00,,,0.00,WeatherTracker,2013-05-28 19:30:00,
2013-05-28 14:35:00,89.9,65.7,30.06,ENE,74,3.0,11.0,45,0.00,,,0.00,WeatherTracker,2013-05-28 19:35:00,
2013-05-28 14:45:00,90.6,66.3,30.05,East,94,4.0,12.0,45,0.00,,,0.00,WeatherTracker,2013-05-28 19:45:00,
2013-05-28 14:50:00,90.6,66.3,30.05,East,97,5.0,12.0,45,0.00,,,0.00,WeatherTracker,2013-05-28 19:50:00,
2013-05-28 15:00:00,90.8,65.2,30.05,SSW,201,4.0,9.0,43,0.00,,,0.00,WeatherTracker,2013-05-28 20:00:00,
2013-05-28 15:05:00,90.8,65.2,30.05,SSE,147,2.0,9.0,43,0.00,,,0.00,WeatherTracker,2013-05-28 20:05:00,
2013-05-28 15:10:00,90.2,65.3,30.05,SSW,194,4.0,8.0,44,0.00,,,0.00,WeatherTracker,2013-05-28 20:10:00,
2013-05-28 15:15:00,90.4,65.5,30.04,ESE,103,2.0,9.0,44,0.00,,,0.00,WeatherTracker,2013-05-28 20:15:00,
2013-05-28 15:25:00,91.1,66.1,30.04,South,175,7.0,10.0,44,0.00,,,0.00,WeatherTracker,2013-05-28 20:25:00,
2013-05-28 15:30:00,91.1,66.1,30.04,East,101,5.0,10.0,44,0.00,,,0.00,WeatherTracker,2013-05-28 20:30:00,
2013-05-28 15:35:00,90.6,65.7,30.04,SE,146,4.0,8.0,44,0.00,,,0.00,WeatherTracker,2013-05-28 20:35:00,
2013-05-28 15:40:00,90.8,65.8,30.04,ESE,108,6.0,8.0,44,0.00,,,0.00,WeatherTracker,2013-05-28 20:40:00,
2013-05-28 15:45:00,91.0,65.4,30.04,East,100,1.0,10.0,43,0.00,,,0.00,WeatherTracker,2013-05-28 20:45:00,
2013-05-28 15:50:00,91.6,65.9,30.04,East,95,2.0,10.0,43,0.00,,,0.00,WeatherTracker,2013-05-28 20:50:00,
2013-05-28 16:00:00,91.3,65.6,30.04,SE,126,2.0,9.0,43,0.00,,,0.00,WeatherTracker,2013-05-28 21:00:00,
2013-05-28 16:10:00,90.2,65.3,30.04,SSE,155,2.0,9.0,44,0.00,,,0.00,WeatherTracker,2013-05-28 21:10:00,
2013-05-28 16:15:00,89.5,64.0,30.03,SE,125,1.0,8.0,43,0.00,,,0.00,WeatherTracker,2013-05-28 21:15:00,
2013-05-28 16:25:00,88.4,64.9,30.03,South,174,5.0,7.0,46,0.00,,,0.00,WeatherTracker,2013-05-28 21:25:00,
2013-05-28 16:30:00,88.3,65.5,30.03,ESE,118,5.0,8.0,47,0.00,,,0.00,WeatherTracker,2013-05-28 21:30:00,
2013-05-28 16:40:00,89.7,64.8,30.03,East,94,5.0,7.0,44,0.00,,,0.00,WeatherTracker,2013-05-28 21:40:00,
2013-05-28 16:45:00,89.5,64.7,30.03,East,93,5.0,7.0,44,0.00,,,0.00,WeatherTracker,2013-05-28 21:45:00,
2013-05-28 16:55:00,89.7,64.8,30.03,South,176,4.0,8.0,44,0.00,,,0.00,WeatherTracker,2013-05-28 21:55:00,
2013-05-28 17:00:00,89.3,64.5,30.03,ESE,117,1.0,8.0,44,0.00,,,0.00,WeatherTracker,2013-05-28 22:00:00,
2013-05-28 17:05:00,88.5,64.4,30.03,ENE,60,4.0,6.0,45,0.00,,,0.00,WeatherTracker,2013-05-28 22:05:00,
2013-05-28 17:10:00,87.8,63.8,30.03,East,92,0.0,7.0,45,0.00,,,0.00,WeatherTracker,2013-05-28 22:10:00,
2013-05-28 17:20:00,87.3,64.0,30.03,SSE,165,4.0,6.0,46,0.00,,,0.00,WeatherTracker,2013-05-28 22:20:00,
2013-05-28 17:25:00,87.2,63.9,30.03,SE,138,2.0,7.0,46,0.00,,,0.00,WeatherTracker,2013-05-28 22:25:00,
2013-05-28 17:35:00,87.0,64.3,30.02,NE,49,0.0,6.0,47,0.00,,,0.00,WeatherTracker,2013-05-28 22:35:00,
2013-05-28 17:40:00,86.9,64.2,30.02,West,271,0.0,5.0,47,0.00,,,0.00,WeatherTracker,2013-05-28 22:40:00,
2013-05-28 17:50:00,86.7,64.6,30.02,SE,126,1.0,3.0,48,0.00,,,0.00,WeatherTracker,2013-05-28 22:50:00,
2013-05-28 17:55:00,86.5,64.4,30.02,ESE,122,1.0,2.0,48,0.00,,,0.00,WeatherTracker,2013-05-28 22:55:00,
2013-05-28 18:05:00,86.2,63.6,30.02,East,94,4.0,5.0,47,0.00,,,0.00,WeatherTracker,2013-05-28 23:05:00,
2013-05-28 18:15:00,85.9,63.9,30.02,ESE,116,0.0,7.0,48,0.00,,,0.00,WeatherTracker,2013-05-28 23:15:00,
2013-05-28 18:20:00,85.8,63.8,30.02,ESE,117,1.0,5.0,48,0.00,,,0.00,WeatherTracker,2013-05-28 23:20:00,
2013-05-28 18:25:00,85.8,63.8,30.02,ESE,102,0.0,5.0,48,0.00,,,0.00,WeatherTracker,2013-05-28 23:25:00,
2013-05-28 18:35:00,85.8,63.2,30.02,SSE,148,2.0,4.0,47,0.00,,,0.00,WeatherTracker,2013-05-28 23:35:00,
2013-05-28 18:40:00,85.6,63.6,30.02,SE,144,0.0,4.0,48,0.00,,,0.00,WeatherTracker,2013-05-28 23:40:00,
2013-05-28 18:45:00,85.4,64.0,30.02,ENE,69,0.0,4.0,49,0.00,,,0.00,WeatherTracker,2013-05-28 23:45:00,
2013-05-28 18:55:00,85.0,63.7,30.02,ENE,69,0.0,1.0,49,0.00,,,0.00,WeatherTracker,2013-05-28 23:55:00,
2013-05-28 19:00:00,84.7,63.4,30.03,ENE,69,0.0,1.0,49,0.00,,,0.00,WeatherTracker,2013-05-29 00:00:00,
2013-05-28 19:05:00,84.4,63.1,30.03,ENE,69,0.0,1.0,49,0.00,,,0.00,WeatherTracker,2013-05-29 00:05:00,
2013-05-28 19:10:00,84.2,63.5,30.03,NNE,17,0.0,0.0,50,0.00,,,0.00,WeatherTracker,2013-05-29 00:10:00,
2013-05-28 19:20:00,83.7,63.6,30.03,NNE,17,0.0,1.0,51,0.00,,,0.00,WeatherTracker,2013-05-29 00:20:00,
2013-05-28 19:30:00,83.1,63.6,30.03,NNE,17,0.0,0.0,52,0.00,,,0.00,WeatherTracker,2013-05-29 00:30:00,
2013-05-28 19:35:00,82.8,63.3,30.03,NNE,17,0.0,0.0,52,0.00,,,0.00,WeatherTracker,2013-05-29 00:35:00,
2013-05-28 19:40:00,82.4,63.5,30.04,NNE,17,0.0,1.0,53,0.00,,,0.00,WeatherTracker,2013-05-29 00:40:00,
2013-05-28 19:50:00,81.6,62.2,30.04,South,181,0.0,4.0,52,0.00,,,0.00,WeatherTracker,2013-05-29 00:50:00,
2013-05-28 19:55:00,81.3,63.0,30.04,South,181,2.0,4.0,54,0.00,,,0.00,WeatherTracker,2013-05-29 00:55:00,
2013-05-28 20:05:00,80.9,65.2,30.04,South,178,1.0,4.0,59,0.00,,,0.00,WeatherTracker,2013-05-29 01:05:00,
2013-05-28 20:15:00,80.4,66.2,30.05,South,178,0.0,5.0,62,0.00,,,0.00,WeatherTracker,2013-05-29 01:15:00,
2013-05-28 20:20:00,80.2,66.9,30.05,South,178,1.0,2.0,64,0.00,,,0.00,WeatherTracker,2013-05-29 01:20:00,
2013-05-28 20:25:00,80.0,67.2,30.05,South,178,1.0,2.0,65,0.00,,,0.00,WeatherTracker,2013-05-29 01:25:00,
2013-05-28 20:35:00,79.3,67.4,30.05,South,178,4.0,4.0,67,0.00,,,0.00,WeatherTracker,2013-05-29 01:35:00,
2013-05-28 20:45:00,78.9,68.3,30.06,South,181,2.0,5.0,70,0.00,,,0.00,WeatherTracker,2013-05-29 01:45:00,
2013-05-28 20:50:00,78.7,68.1,30.06,South,181,1.0,5.0,70,0.00,,,0.00,WeatherTracker,2013-05-29 01:50:00,
2013-05-28 20:55:00,78.5,68.3,30.06,South,181,0.0,3.0,71,0.00,,,0.00,WeatherTracker,2013-05-29 01:55:00,
2013-05-28 21:05:00,78.1,68.7,30.07,South,181,0.0,2.0,73,0.00,,,0.00,WeatherTracker,2013-05-29 02:05:00,
2013-05-28 21:10:00,77.9,68.9,30.07,South,181,2.0,3.0,74,0.00,,,0.00,WeatherTracker,2013-05-29 02:10:00,
2013-05-28 21:20:00,77.3,68.7,30.07,SSW,194,1.0,5.0,75,0.00,,,0.00,WeatherTracker,2013-05-29 02:20:00,
2013-05-28 21:25:00,77.1,68.9,30.07,South,190,1.0,6.0,76,0.00,,,0.00,WeatherTracker,2013-05-29 02:25:00,
2013-05-28 21:30:00,76.9,68.7,30.08,SSW,208,0.0,7.0,76,0.00,,,0.00,WeatherTracker,2013-05-29 02:30:00,
2013-05-28 21:40:00,76.5,68.7,30.08,SSW,209,0.0,4.0,77,0.00,,,0.00,WeatherTracker,2013-05-29 02:40:00,
2013-05-28 21:45:00,76.4,68.6,30.08,SSW,209,0.0,4.0,77,0.00,,,0.00,WeatherTracker,2013-05-29 02:45:00,
2013-05-28 21:55:00,76.0,68.6,30.08,SSW,209,0.0,0.0,78,0.00,,,0.00,WeatherTracker,2013-05-29 02:55:00,
2013-05-28 22:05:00,75.6,68.2,30.08,SSW,209,0.0,0.0,78,0.00,,,0.00,WeatherTracker,2013-05-29 03:05:00,
2013-05-28 22:15:00,75.1,67.8,30.08,SSW,209,0.0,0.0,78,0.00,,,0.00,WeatherTracker,2013-05-29 03:15:00,
2013-05-28 22:25:00,74.5,67.9,30.09,SSW,209,0.0,2.0,80,0.00,,,0.00,WeatherTracker,2013-05-29 03:25:00,
2013-05-28 22:30:00,74.2,67.6,30.09,SSW,209,0.0,3.0,80,0.00,,,0.00,WeatherTracker,2013-05-29 03:30:00,
2013-05-28 22:35:00,73.9,67.7,30.09,SSW,209,0.0,3.0,81,0.00,,,0.00,WeatherTracker,2013-05-29 03:35:00,
2013-05-28 22:45:00,73.6,67.4,30.09,SSW,209,0.0,0.0,81,0.00,,,0.00,WeatherTracker,2013-05-29 03:45:00,
2013-05-28 22:55:00,73.3,67.1,30.09,SSW,209,0.0,0.0,81,0.00,,,0.00,WeatherTracker,2013-05-29 03:55:00,
2013-05-28 23:05:00,72.8,67.0,30.08,SSW,209,0.0,0.0,82,0.00,,,0.00,WeatherTracker,2013-05-29 04:05:00,
2013-05-28 23:10:00,72.6,66.8,30.08,SSW,209,0.0,0.0,82,0.00,,,0.00,WeatherTracker,2013-05-29 04:10:00,
2013-05-28 23:15:00,72.4,66.6,30.09,SSW,209,0.0,0.0,82,0.00,,,0.00,WeatherTracker,2013-05-29 04:15:00,
2013-05-28 23:20:00,72.1,66.3,30.09,SSW,209,0.0,0.0,82,0.00,,,0.00,WeatherTracker,2013-05-29 04:20:00,
2013-05-28 23:25:00,71.9,66.1,30.09,SSW,209,0.0,0.0,82,0.00,,,0.00,WeatherTracker,2013-05-29 04:25:00,
2013-05-28 23:35:00,71.5,66.4,30.09,SSW,209,0.0,0.0,84,0.00,,,0.00,WeatherTracker,2013-05-29 04:35:00,
2013-05-28 23:45:00,70.9,66.2,30.09,SSW,209,0.0,0.0,85,0.00,,,0.00,WeatherTracker,2013-05-29 04:45:00,
2013-05-28 23:55:00,70.5,66.1,30.09,SSW,209,0.0,0.0,86,0.00,,,0.00,WeatherTracker,2013-05-29 04:55:00,